DW1454 Weather Reports


Display with metric or nautical units.
time (UTC)temp
F
wind
direction
speed
MPH
gust
MPH
rain 1hr
in
rain 24hr
in
rain mn
in
humidity
%
barometer
mb
20260903062006 30 0.0 0.0 0.00 0.00 0.00 52 1018.8
20260903061214 31 0.0 0.0 0.00 0.00 0.00 52 1018.8
20260903060217 32 0.0 0.0 0.00 0.00 0.00 52 1018.7
20260903055006 32 0.0 0.0 0.00 0.00 0.00 52 1018.5
20260903054005 33 0.0 0.0 0.00 0.00 0.00 51 1018.4
20260903053216 34 0.0 0.0 0.00 0.00 0.00 50 1018.4
20260903052216 35 0.0 0.0 0.00 0.00 0.00 50 1018.4
20260903051005 36 0.0 0.0 0.00 0.00 0.00 51 1018.4
20260903050005 38 0.0 0.0 0.00 0.00 0.00 50 1018.3
20260903045005 39 0.0 0.0 0.00 0.00 0.00 50 1018.2
20260903044005 40 0.0 0.0 0.00 0.00 0.00 50 1018.2
20260903043006 41 0.0 0.0 0.00 0.00 0.00 49 1018.1
20260903042007 42 0.0 0.0 0.00 0.00 0.00 49 1018.0
20260903041007 43 0.0 0.0 0.00 0.00 0.00 48 1018.0
20260903040216 43 0.0 0.0 0.00 0.00 0.00 45 1018.0
20260903035007 44 0.0 0.0 0.00 0.00 0.00 46 1018.1
20260903034007 44 0.0 0.0 0.00 0.00 0.00 43 1017.9
20260903033216 45 0.0 0.0 0.00 0.00 0.00 42 1017.9
20260903032006 46 0.0 0.0 0.00 0.00 0.00 38 1017.8
20260903031216 46 0.0 0.0 0.00 0.00 0.00 38 1017.8
20260903030006 45 0.0 0.0 0.00 0.00 0.00 39 1017.8
20260903025006 46 0.0 0.0 0.00 0.00 0.00 38 1017.7
20260903024215 47 0.0 0.0 0.00 0.00 0.00 36 1017.6
20260903023215 48 0.0 0.0 0.00 0.00 0.00 36 1017.7
20260903022217 48 0.0 0.0 0.00 0.00 0.00 36 1017.5
20260903021006 47 0.0 0.0 0.00 0.00 0.00 36 1017.5
20260903020006 48 0.0 0.0 0.00 0.00 0.00 35 1017.4
20260903015006 48 0.0 0.0 0.00 0.00 0.00 36 1017.4
20260903014006 48 0.0 0.0 0.00 0.00 0.00 39 1017.4
20260903013005 48 0.0 0.0 0.00 0.00 0.00 39 1017.3
20260903012006 47 0.0 0.0 0.00 0.00 0.00 39 1017.3
20260903011007 47 0.0 0.0 0.00 0.00 0.00 39 1017.2
20260903010006 48 0.0 0.0 0.00 0.00 0.00 40 1017.1
20260903005005 48 0.0 0.0 0.00 0.00 0.00 39 1017.1
20260903004006 49 0.0 0.0 0.00 0.00 0.00 40 1017.0
20260903003217 50 0.0 0.0 0.00 0.00 0.00 39 1017.0
20260903002006 52 0.0 0.0 0.00 0.00 0.00 39 1016.9
20260903001006 49 0.0 0.0 0.00 0.00 0.00 39 1016.9
20260903000007 50 0.0 0.0 0.00 0.00 0.00 39 1016.9
20260902235005 49 0.0 0.0 0.00 0.00 0.00 41 1016.8
20260902234006 49 0.0 0.0 0.00 0.00 0.00 43 1016.6
20260902233006 48 0.0 0.0 0.00 0.00 0.00 45 1016.6
20260902232007 47 0.0 0.0 0.00 0.00 0.00 45 1016.7
20260902231007 46 0.0 0.0 0.00 0.00 0.00 45 1016.6
20260902230006 44 0.0 0.0 0.00 0.00 0.00 46 1016.5
20260902225216 45 0.0 0.0 0.00 0.00 0.00 45 1016.4
20260902224005 46 0.0 0.0 0.00 0.00 0.00 46 1016.3
20260902223005 46 0.0 0.0 0.00 0.00 0.00 46 1016.3
20260902222006 45 0.0 0.0 0.00 0.00 0.00 47 1016.2
20260902221005 45 0.0 0.0 0.00 0.00 0.00 47 1016.0
20260902220006 44 0.0 0.0 0.00 0.00 0.00 47 1016.0
20260902215005 44 0.0 0.0 0.00 0.00 0.00 47 1015.9
20260902214006 44 0.0 0.0 0.00 0.00 0.00 47 1015.7
20260902213006 44 0.0 0.0 0.00 0.00 0.00 48 1015.6
20260902212006 43 0.0 0.0 0.00 0.00 0.00 47 1015.6
20260902211005 43 0.0 0.0 0.00 0.00 0.00 49 1015.5
20260902210007 42 0.0 0.0 0.00 0.00 0.00 50 1015.5
20260902205215 44 0.0 0.0 0.00 0.00 0.00 51 1015.2
20260902204005 43 0.0 0.0 0.00 0.00 0.00 51 1015.1
20260902203006 42 0.0 0.0 0.00 0.00 0.00 52 1015.2
20260902202005 42 0.0 0.0 0.00 0.00 0.00 54 1015.2
20260902201005 42 0.0 0.0 0.00 0.00 0.00 56 1015.1
20260902200006 42 0.0 0.0 0.00 0.00 0.00 57 1015.0
20260902195006 41 0.0 0.0 0.00 0.00 0.00 56 1014.9
20260902194006 42 0.0 0.0 0.00 0.00 0.00 57 1014.8
20260902193216 40 0.0 0.0 0.00 0.00 0.00 58 1014.8
20260902192006 40 0.0 0.0 0.00 0.00 0.00 58 1014.6
20260902191006 40 0.0 0.0 0.00 0.00 0.00 59 1014.5
20260902190005 40 0.0 0.0 0.00 0.00 0.00 60 1014.3
20260902185006 40 0.0 0.0 0.00 0.00 0.00 61 1014.2
20260902184216 39 0.0 0.0 0.00 0.00 0.00 61 1014.1
20260902183005 39 0.0 0.0 0.00 0.00 0.00 62 1013.9
20260902182006 39 0.0 0.0 0.00 0.00 0.00 63 1013.9
20260902181006 38 0.0 0.0 0.00 0.00 0.00 63 1013.6
20260902180217 38 0.0 0.0 0.00 0.00 0.00 63 1013.4
20260902175006 38 0.0 0.0 0.00 0.00 0.00 64 1013.2
20260902174216 39 0.0 0.0 0.00 0.00 0.00 64 1013.0
20260902173006 39 0.0 0.0 0.00 0.00 0.00 64 1012.9
20260902172006 39 0.0 0.0 0.00 0.00 0.00 64 1012.7
20260902171006 39 0.0 0.0 0.00 0.00 0.00 64 1012.5
20260902170005 38 0.0 0.0 0.00 0.00 0.00 64 1012.4
20260902165006 38 0.0 0.0 0.00 0.00 0.00 64 1012.3
20260902164006 38 0.0 0.0 0.00 0.00 0.00 64 1012.2
20260902163215 37 0.0 0.0 0.00 0.00 0.00 64 1012.0
20260902162006 37 0.0 0.0 0.00 0.00 0.00 64 1011.9
20260902161006 37 0.0 0.0 0.00 0.00 0.00 64 1011.9
20260902160008 37 0.0 0.0 0.00 0.00 0.00 63 1011.5
20260902155006 37 0.0 0.0 0.00 0.00 0.00 63 1011.5
20260902154217 36 0.0 0.0 0.00 0.00 0.00 63 1011.2
20260902153006 36 0.0 0.0 0.00 0.00 0.00 63 1011.2
20260902152005 36 0.0 0.0 0.00 0.00 0.00 63 1011.2
20260902151005 36 0.0 0.0 0.00 0.00 0.00 63 1011.0
20260902150006 35 0.0 0.0 0.00 0.00 0.00 63 1011.0
20260902145006 35 0.0 0.0 0.00 0.00 0.00 63 1010.8
20260902144217 35 0.0 0.0 0.00 0.00 0.00 63 1010.7
20260902143006 35 0.0 0.0 0.00 0.00 0.00 62 1010.6
20260902142005 35 0.0 0.0 0.00 0.00 0.00 62 1010.5
20260902141006 35 0.0 0.0 0.00 0.00 0.00 62 1010.4
20260902140006 35 0.0 0.0 0.00 0.00 0.00 62 1010.3
20260902135217 35 0.0 0.0 0.00 0.00 0.00 62 1010.3
20260902134216 35 0.0 0.0 0.00 0.00 0.00 62 1010.3
20260902133005 35 0.0 0.0 0.00 0.00 0.00 61 1010.2
20260902132005 35 0.0 0.0 0.00 0.00 0.00 61 1010.1
20260902131007 35 0.0 0.0 0.00 0.00 0.00 61 1010.1
20260902130005 35 0.0 0.0 0.00 0.00 0.00 61 1010.0
20260902125007 35 0.0 0.0 0.00 0.00 0.00 60 1009.8
20260902124005 35 0.0 0.0 0.00 0.00 0.00 60 1009.7
20260902123006 35 0.0 0.0 0.00 0.00 0.00 60 1009.5
20260902122006 35 0.0 0.0 0.00 0.00 0.00 59 1009.4
20260902121005 35 0.0 0.0 0.00 0.00 0.00 60 1009.2
20260902120006 34 0.0 0.0 0.00 0.00 0.00 60 1009.3
20260902115005 34 0.0 0.0 0.00 0.00 0.00 60 1009.3
20260902114005 34 0.0 0.0 0.00 0.00 0.00 60 1009.3
20260902113006 34 0.0 0.0 0.00 0.00 0.00 59 1009.4
20260902112006 34 0.0 0.0 0.00 0.00 0.00 59 1009.4
20260902111006 34 0.0 0.0 0.00 0.00 0.00 59 1009.4
20260902110215 34 0.0 0.0 0.00 0.00 0.00 59 1009.4
20260902105006 34 0.0 0.0 0.00 0.00 0.00 59 1009.3
20260902104006 34 0.0 0.0 0.00 0.00 0.00 59 1009.3
20260902103215 35 0.0 0.0 0.00 0.00 0.00 59 1009.4
20260902102006 34 0.0 0.0 0.00 0.00 0.00 59 1009.4
20260902101005 34 0.0 0.0 0.00 0.00 0.00 59 1009.5
20260902100217 34 0.0 0.0 0.00 0.00 0.00 58 1009.5
20260902095006 34 0.0 0.0 0.00 0.00 0.00 59 1009.5
20260902094217 34 0.0 0.0 0.00 0.00 0.00 58 1009.5
20260902093006 34 0.0 0.0 0.00 0.00 0.00 58 1009.5
20260902092007 33 0.0 0.0 0.00 0.00 0.00 58 1009.5
20260902091006 33 0.0 0.0 0.00 0.00 0.00 58 1009.6
20260902090006 33 0.0 0.0 0.00 0.00 0.00 59 1009.7
20260902085006 32 0.0 0.0 0.00 0.00 0.00 58 1009.7
20260902084006 32 0.0 0.0 0.00 0.00 0.00 58 1009.6
20260902083006 32 0.0 0.0 0.00 0.00 0.00 57 1009.6
20260902082006 33 0.0 0.0 0.00 0.00 0.00 57 1009.6
20260902081005 32 0.0 0.0 0.00 0.00 0.00 58 1009.5
20260902080005 33 0.0 0.0 0.00 0.00 0.00 57 1009.7
20260902075005 33 0.0 0.0 0.00 0.00 0.00 58 1009.7
20260902074005 32 0.0 0.0 0.00 0.00 0.00 57 1009.7
20260902073006 32 0.0 0.0 0.00 0.00 0.00 57 1009.7
20260902072006 32 0.0 0.0 0.00 0.00 0.00 57 1009.7
20260902071006 31 0.0 0.0 0.00 0.00 0.00 57 1009.7
20260902070007 31 0.0 0.0 0.00 0.00 0.00 56 1009.6
20260902065006 31 0.0 0.0 0.00 0.00 0.00 55 1009.7
20260902064216 31 0.0 0.0 0.00 0.00 0.00 55 1009.7
20260902063006 31 0.0 0.0 0.00 0.00 0.00 55 1009.6